COSMOS 1275 DEB, 42150

Orbit data source: Space-Track

COSMOS 1275 DEB, 42150 is space debris in LEO originally from a launch on Thu, 04 Jun 1981 UTC launched from the Plesetsk Missile And Space Complex (PKMTR). Debris objects in space refer to the collection of defunct objects orbiting the Earth. Examples of debris include non-operational satellites, rocket bodies, and fragments generated from explosions, collisions, or faulty payload assembly.

Loading next visibility...
Identifier
42150, 1981-053RN
Orbit
LEO
Country
Flag of CISCIS
Related business
Manufacturer
Unknown
Mission
Spacecraft
Bus & Motor
Unknown
Mass
Unknown
Launch date (UTC)
1981-06-04 (45 years ago)
Launch vehicle
Unknown
Launch site
Plesetsk Missile And Space Complex (PKMTR)
Object type
Payload
Rocket body
Debris
Shape & HBR
Unknown shape, 0.1 m
Radar Cross Section
Small (<0.1 m²)

Expand to show TLE details & history
Last TLE update: 4 weeks ago

TLE from 4 weeks ago
0 COSMOS 1275 DEB
1 42150U 81053RN  25327.42544687  .00001601  00000-0  21070-2 0  9998
2 42150  83.0624 223.3706 0219987  51.5809 310.4859 13.51097356545615
Epoch: 2025-11-23T10:12Z
TLE epoch observation values (Epoch: 2025-11-23T10:12:38.609Z)
Latitude
-0.00004°
Longitude
7.56977°
Altitude
966.847 km
Speed
7.42 km/s
True Right ascension
14h 53m 28s
True Declination
0° 00' 00"
Sunlit
Object was in daylight at epoch
Visualization orbit readout
Latitude
Unknown
Longitude
Unknown
Altitude
Unknown
Speed
Unknown
Apparent Right ascension
Unknown
Apparent Declination
Unknown
Sunlit
N/A
Visualization observer readout
Local Sidereal Time
14:20:32
Azimuth
Unknown
Elevation
Unknown
Doppler factor
Unknown
Orbital elements
Apogee altitude
1,229.147 km
Perigee altitude
901.651 km
Semi-major axis
7,443.536 km
Eccentricity
0.022
Inclination
83.0624°
RAAN
223.3706°
Arg. of periapsis
51.5809°
True anomaly
308.53417°
Mean anomaly
310.4859°
Eccentric anomaly
309.51351°
Mean motion
3.37967 °/min
Orbital period
106.52 mins
BSTAR
0.002107
Loading maneuver chart data...
Computing Atmospheric mass density...
Loading historical data...
Loading historical data...
Loading historical data...
Loading historical data...
Loading historical data...
Loading historical data...
Loading historical data...

Documentation

Showing up to 5 results
|